iso_date,epoch_date,Year,Hour,Min,DOY,POS_DOY,Lat,Lon,BP,Ts,Ta,has_bp,has_ts,has_ta,BuoyID,Buoy_Type,Buoy_Owner,Logistics,Hemisphere
2021-03-06T21:50:58Z,1615067459,2021,21,51,65.9104,65.9104,71.19301,-144.99041,-999.00,-999.00,-999.0,no,no,no,300534061984510,unknown,unknown,unknown,North
2021-03-06T22:00:02Z,1615068003,2021,22,0,65.9167,65.9167,71.19324,-144.99366,-999.00,-999.00,-999.0,no,no,no,300534061984510,unknown,unknown,unknown,North
2021-03-06T22:09:59Z,1615068599,2021,22,10,65.9236,65.9236,71.19526,-144.98509,-999.00,-999.00,-999.0,no,no,no,300534061984510,unknown,unknown,unknown,North
2021-03-06T22:20:03Z,1615069204,2021,22,20,65.9306,65.9306,71.25279,-144.77083,-999.00,-999.00,-999.0,no,no,no,300534061984510,unknown,unknown,unknown,North
2021-03-06T22:30:00Z,1615069800,2021,22,30,65.9375,65.9375,71.10834,-144.92702,-999.00,-999.00,-999.0,no,no,no,300534061984510,unknown,unknown,unknown,North
2021-03-06T22:39:56Z,1615070396,2021,22,40,65.9444,65.9444,71.21741,-145.23378,-999.00,-999.00,-999.0,no,no,no,300534061984510,unknown,unknown,unknown,North
2021-03-06T22:50:00Z,1615071001,2021,22,50,65.9514,65.9514,71.2337,-144.87226,-999.00,-999.00,-999.0,no,no,no,300534061984510,unknown,unknown,unknown,North
2021-03-06T22:59:57Z,1615071597,2021,23,0,65.9583,65.9583,71.15004,-144.96696,-999.00,-999.00,-999.0,no,no,no,300534061984510,unknown,unknown,unknown,North
2021-03-06T23:10:01Z,1615072202,2021,23,10,65.9653,65.9653,71.15023,-144.97036,-999.00,-999.00,-999.0,no,no,no,300534061984510,unknown,unknown,unknown,North
2021-03-06T23:19:58Z,1615072798,2021,23,20,65.9722,65.9722,71.15046,-144.97369,-999.00,-999.00,-999.0,no,no,no,300534061984510,unknown,unknown,unknown,North
2021-03-06T23:30:02Z,1615073403,2021,23,30,65.9792,65.9792,71.15066,-144.97701,-999.00,-999.00,-999.0,no,no,no,300534061984510,unknown,unknown,unknown,North
2021-03-06T23:39:59Z,1615073999,2021,23,40,65.9861,65.9861,71.15082,-144.98031,-999.00,-999.00,-999.0,no,no,no,300534061984510,unknown,unknown,unknown,North
2021-03-06T23:50:03Z,1615074604,2021,23,50,65.9931,65.9931,71.15104,-144.98357,-999.00,-999.00,-999.0,no,no,no,300534061984510,unknown,unknown,unknown,North
2021-03-07T00:00:00Z,1615075200,2021,0,0,66.0,66.0,71.15129,-144.98693,-999.00,-999.00,-999.0,no,no,no,300534061984510,unknown,unknown,unknown,North
2021-03-07T00:09:56Z,1615075796,2021,0,10,66.0069,66.0069,71.15148,-144.9902,-999.00,-999.00,-999.0,no,no,no,300534061984510,unknown,unknown,unknown,North
2021-03-07T00:20:00Z,1615076401,2021,0,20,66.0139,66.0139,71.15167,-144.99344,-999.00,-999.00,-999.0,no,no,no,300534061984510,unknown,unknown,unknown,North
2021-03-07T00:29:57Z,1615076997,2021,0,30,66.0208,66.0208,71.15186,-144.99668,-999.00,-999.00,-999.0,no,no,no,300534061984510,unknown,unknown,unknown,North
2021-03-07T00:40:01Z,1615077602,2021,0,40,66.0278,66.0278,71.15203,-144.99987,-999.00,-999.00,-999.0,no,no,no,300534061984510,unknown,unknown,unknown,North
2021-03-07T00:49:58Z,1615078198,2021,0,50,66.0347,66.0347,71.15223,-145.00306,-999.00,-999.00,-999.0,no,no,no,300534061984510,unknown,unknown,unknown,North
2021-03-07T01:00:02Z,1615078803,2021,1,0,66.0417,66.0417,71.15237,-145.00619,-999.00,-999.00,-999.0,no,no,no,300534061984510,unknown,unknown,unknown,North
2021-03-07T01:09:59Z,1615079399,2021,1,10,66.0486,66.0486,71.15261,-145.00936,-999.00,-999.00,-999.0,no,no,no,300534061984510,unknown,unknown,unknown,North
2021-03-07T01:20:03Z,1615080004,2021,1,20,66.0556,66.0556,71.15279,-145.01245,-999.00,-999.00,-999.0,no,no,no,300534061984510,unknown,unknown,unknown,North
2021-03-07T01:30:00Z,1615080600,2021,1,30,66.0625,66.0625,71.15294,-145.01547,-999.00,-999.00,-999.0,no,no,no,300534061984510,unknown,unknown,unknown,North
2021-03-07T01:39:56Z,1615081196,2021,1,40,66.0694,66.0694,71.15307,-145.01852,-999.00,-999.00,-999.0,no,no,no,300534061984510,unknown,unknown,unknown,North
2021-03-07T01:50:00Z,1615081801,2021,1,50,66.0764,66.0764,71.15326,-145.02149,-999.00,-999.00,-999.0,no,no,no,300534061984510,unknown,unknown,unknown,North
2021-03-07T01:59:57Z,1615082397,2021,2,0,66.0833,66.0833,71.15349,-145.02441,-999.00,-999.00,-999.0,no,no,no,300534061984510,unknown,unknown,unknown,North
2021-03-07T02:10:01Z,1615083002,2021,2,10,66.0903,66.0903,71.15366,-145.02757,-999.00,-999.00,-999.0,no,no,no,300534061984510,unknown,unknown,unknown,North
2021-03-07T02:19:58Z,1615083598,2021,2,20,66.0972,66.0972,71.15382,-145.03041,-999.00,-999.00,-999.0,no,no,no,300534061984510,unknown,unknown,unknown,North
2021-03-07T02:30:02Z,1615084203,2021,2,30,66.1042,66.1042,71.15402,-145.03331,-999.00,-999.00,-999.0,no,no,no,300534061984510,unknown,unknown,unknown,North
2021-03-07T02:39:59Z,1615084799,2021,2,40,66.1111,66.1111,71.15422,-145.03619,-999.00,-999.00,-999.0,no,no,no,300534061984510,unknown,unknown,unknown,North
2021-03-07T02:50:03Z,1615085404,2021,2,50,66.1181,66.1181,71.15442,-145.03906,-999.00,-999.00,-999.0,no,no,no,300534061984510,unknown,unknown,unknown,North
2021-03-07T03:00:00Z,1615086000,2021,3,0,66.125,66.125,71.15455,-145.04205,-999.00,-999.00,-999.0,no,no,no,300534061984510,unknown,unknown,unknown,North
2021-03-07T03:09:56Z,1615086596,2021,3,10,66.1319,66.1319,71.1548,-145.04483,-999.00,-999.00,-999.0,no,no,no,300534061984510,unknown,unknown,unknown,North
2021-03-07T03:20:00Z,1615087201,2021,3,20,66.1389,66.1389,71.15497,-145.04776,-999.00,-999.00,-999.0,no,no,no,300534061984510,unknown,unknown,unknown,North
2021-03-07T03:29:57Z,1615087797,2021,3,30,66.1458,66.1458,71.15517,-145.0506,-999.00,-999.00,-999.0,no,no,no,300534061984510,unknown,unknown,unknown,North
2021-03-07T03:40:01Z,1615088402,2021,3,40,66.1528,66.1528,71.15537,-145.05343,-999.00,-999.00,-999.0,no,no,no,300534061984510,unknown,unknown,unknown,North
2021-03-07T03:49:58Z,1615088998,2021,3,50,66.1597,66.1597,71.15558,-145.05629,-999.00,-999.00,-999.0,no,no,no,300534061984510,unknown,unknown,unknown,North
2021-03-07T04:00:02Z,1615089603,2021,4,0,66.1667,66.1667,71.15581,-145.05917,-999.00,-999.00,-999.0,no,no,no,300534061984510,unknown,unknown,unknown,North
2021-03-07T04:09:59Z,1615090199,2021,4,10,66.1736,66.1736,71.15602,-145.062,-999.00,-999.00,-999.0,no,no,no,300534061984510,unknown,unknown,unknown,North
2021-03-07T04:20:03Z,1615090804,2021,4,20,66.1806,66.1806,71.15624,-145.06485,-999.00,-999.00,-999.0,no,no,no,300534061984510,unknown,unknown,unknown,North
2021-03-07T04:30:00Z,1615091400,2021,4,30,66.1875,66.1875,71.15644,-145.06771,-999.00,-999.00,-999.0,no,no,no,300534061984510,unknown,unknown,unknown,North
2021-03-07T04:39:56Z,1615091996,2021,4,40,66.1944,66.1944,71.15666,-145.07063,-999.00,-999.00,-999.0,no,no,no,300534061984510,unknown,unknown,unknown,North
2021-03-07T04:50:00Z,1615092601,2021,4,50,66.2014,66.2014,71.15688,-145.07343,-999.00,-999.00,-999.0,no,no,no,300534061984510,unknown,unknown,unknown,North
2021-03-07T04:59:57Z,1615093197,2021,5,0,66.2083,66.2083,71.15709,-145.07629,-999.00,-999.00,-999.0,no,no,no,300534061984510,unknown,unknown,unknown,North
2021-03-07T05:10:01Z,1615093802,2021,5,10,66.2153,66.2153,71.15731,-145.0791,-999.00,-999.00,-999.0,no,no,no,300534061984510,unknown,unknown,unknown,North
2021-03-07T05:19:58Z,1615094398,2021,5,20,66.2222,66.2222,71.15754,-145.08194,-999.00,-999.00,-999.0,no,no,no,300534061984510,unknown,unknown,unknown,North
2021-03-07T05:30:02Z,1615095003,2021,5,30,66.2292,66.2292,71.15777,-145.08484,-999.00,-999.00,-999.0,no,no,no,300534061984510,unknown,unknown,unknown,North
2021-03-07T05:39:59Z,1615095599,2021,5,40,66.2361,66.2361,71.15799,-145.08775,-999.00,-999.00,-999.0,no,no,no,300534061984510,unknown,unknown,unknown,North
2021-03-07T05:50:03Z,1615096204,2021,5,50,66.2431,66.2431,71.15826,-145.09051,-999.00,-999.00,-999.0,no,no,no,300534061984510,unknown,unknown,unknown,North
2021-03-07T06:00:00Z,1615096800,2021,6,0,66.25,66.25,71.15847,-145.09354,-999.00,-999.00,-999.0,no,no,no,300534061984510,unknown,unknown,unknown,North
2021-03-07T06:09:56Z,1615097396,2021,6,10,66.2569,66.2569,71.15871,-145.09646,-999.00,-999.00,-999.0,no,no,no,300534061984510,unknown,unknown,unknown,North
2021-03-07T06:20:00Z,1615098001,2021,6,20,66.2639,66.2639,71.15895,-145.09936,-999.00,-999.00,-999.0,no,no,no,300534061984510,unknown,unknown,unknown,North
2021-03-07T06:29:57Z,1615098597,2021,6,30,66.2708,66.2708,71.15919,-145.10229,-999.00,-999.00,-999.0,no,no,no,300534061984510,unknown,unknown,unknown,North
2021-03-07T06:40:01Z,1615099202,2021,6,40,66.2778,66.2778,71.15943,-145.10523,-999.00,-999.00,-999.0,no,no,no,300534061984510,unknown,unknown,unknown,North
2021-03-07T06:49:58Z,1615099798,2021,6,50,66.2847,66.2847,71.15967,-145.1082,-999.00,-999.00,-999.0,no,no,no,300534061984510,unknown,unknown,unknown,North
2021-03-07T07:00:02Z,1615100403,2021,7,0,66.2917,66.2917,71.1599,-145.11117,-999.00,-999.00,-999.0,no,no,no,300534061984510,unknown,unknown,unknown,North
2021-03-07T07:09:59Z,1615100999,2021,7,10,66.2986,66.2986,71.16017,-145.11433,-999.00,-999.00,-999.0,no,no,no,300534061984510,unknown,unknown,unknown,North
2021-03-07T07:20:03Z,1615101604,2021,7,20,66.3056,66.3056,71.16041,-145.11722,-999.00,-999.00,-999.0,no,no,no,300534061984510,unknown,unknown,unknown,North
2021-03-07T07:30:00Z,1615102200,2021,7,30,66.3125,66.3125,71.16065,-145.12033,-999.00,-999.00,-999.0,no,no,no,300534061984510,unknown,unknown,unknown,North
2021-03-07T07:39:56Z,1615102796,2021,7,40,66.3194,66.3194,71.1609,-145.12342,-999.00,-999.00,-999.0,no,no,no,300534061984510,unknown,unknown,unknown,North
2021-03-07T07:50:00Z,1615103401,2021,7,50,66.3264,66.3264,71.16114,-145.12647,-999.00,-999.00,-999.0,no,no,no,300534061984510,unknown,unknown,unknown,North
2021-03-07T07:59:57Z,1615103997,2021,8,0,66.3333,66.3333,71.16138,-145.12954,-999.00,-999.00,-999.0,no,no,no,300534061984510,unknown,unknown,unknown,North
2021-03-07T08:10:01Z,1615104602,2021,8,10,66.3403,66.3403,71.16162,-145.13265,-999.00,-999.00,-999.0,no,no,no,300534061984510,unknown,unknown,unknown,North
2021-03-07T08:19:58Z,1615105198,2021,8,20,66.3472,66.3472,71.16187,-145.13579,-999.00,-999.00,-999.0,no,no,no,300534061984510,unknown,unknown,unknown,North
2021-03-07T08:30:02Z,1615105803,2021,8,30,66.3542,66.3542,71.16213,-145.13896,-999.00,-999.00,-999.0,no,no,no,300534061984510,unknown,unknown,unknown,North
2021-03-07T08:39:59Z,1615106399,2021,8,40,66.3611,66.3611,71.1624,-145.1421,-999.00,-999.00,-999.0,no,no,no,300534061984510,unknown,unknown,unknown,North
2021-03-07T08:50:03Z,1615107004,2021,8,50,66.3681,66.3681,71.16264,-145.14528,-999.00,-999.00,-999.0,no,no,no,300534061984510,unknown,unknown,unknown,North
2021-03-07T09:00:00Z,1615107600,2021,9,0,66.375,66.375,71.16287,-145.14845,-999.00,-999.00,-999.0,no,no,no,300534061984510,unknown,unknown,unknown,North
2021-03-07T09:09:56Z,1615108196,2021,9,10,66.3819,66.3819,71.16314,-145.15162,-999.00,-999.00,-999.0,no,no,no,300534061984510,unknown,unknown,unknown,North
2021-03-07T09:20:00Z,1615108801,2021,9,20,66.3889,66.3889,71.16343,-145.15486,-999.00,-999.00,-999.0,no,no,no,300534061984510,unknown,unknown,unknown,North
2021-03-07T09:29:57Z,1615109397,2021,9,30,66.3958,66.3958,71.16369,-145.15801,-999.00,-999.00,-999.0,no,no,no,300534061984510,unknown,unknown,unknown,North
2021-03-07T09:40:01Z,1615110002,2021,9,40,66.4028,66.4028,71.16396,-145.16118,-999.00,-999.00,-999.0,no,no,no,300534061984510,unknown,unknown,unknown,North
2021-03-07T09:49:58Z,1615110598,2021,9,50,66.4097,66.4097,71.16421,-145.16436,-999.00,-999.00,-999.0,no,no,no,300534061984510,unknown,unknown,unknown,North
2021-03-07T10:00:02Z,1615111203,2021,10,0,66.4167,66.4167,71.16448,-145.16751,-999.00,-999.00,-999.0,no,no,no,300534061984510,unknown,unknown,unknown,North
2021-03-07T10:09:59Z,1615111799,2021,10,10,66.4236,66.4236,71.16476,-145.17067,-999.00,-999.00,-999.0,no,no,no,300534061984510,unknown,unknown,unknown,North
2021-03-07T10:20:03Z,1615112404,2021,10,20,66.4306,66.4306,71.16501,-145.17389,-999.00,-999.00,-999.0,no,no,no,300534061984510,unknown,unknown,unknown,North
2021-03-07T10:30:00Z,1615113000,2021,10,30,66.4375,66.4375,71.16526,-145.177,-999.00,-999.00,-999.0,no,no,no,300534061984510,unknown,unknown,unknown,North
2021-03-07T10:39:56Z,1615113596,2021,10,40,66.4444,66.4444,71.16554,-145.18014,-999.00,-999.00,-999.0,no,no,no,300534061984510,unknown,unknown,unknown,North
2021-03-07T10:50:00Z,1615114201,2021,10,50,66.4514,66.4514,71.16579,-145.18328,-999.00,-999.00,-999.0,no,no,no,300534061984510,unknown,unknown,unknown,North
2021-03-07T10:59:57Z,1615114797,2021,11,0,66.4583,66.4583,71.16601,-145.18633,-999.00,-999.00,-999.0,no,no,no,300534061984510,unknown,unknown,unknown,North
2021-03-07T11:10:01Z,1615115402,2021,11,10,66.4653,66.4653,71.16626,-145.18942,-999.00,-999.00,-999.0,no,no,no,300534061984510,unknown,unknown,unknown,North
2021-03-07T11:19:58Z,1615115998,2021,11,20,66.4722,66.4722,71.1665,-145.19248,-999.00,-999.00,-999.0,no,no,no,300534061984510,unknown,unknown,unknown,North
2021-03-07T11:30:02Z,1615116603,2021,11,30,66.4792,66.4792,71.16674,-145.19554,-999.00,-999.00,-999.0,no,no,no,300534061984510,unknown,unknown,unknown,North
2021-03-07T11:39:59Z,1615117199,2021,11,40,66.4861,66.4861,71.16695,-145.19849,-999.00,-999.00,-999.0,no,no,no,300534061984510,unknown,unknown,unknown,North
2021-03-07T11:50:03Z,1615117804,2021,11,50,66.4931,66.4931,71.1672,-145.20167,-999.00,-999.00,-999.0,no,no,no,300534061984510,unknown,unknown,unknown,North
2021-03-07T12:00:00Z,1615118400,2021,12,0,66.5,66.5,71.16741,-145.20464,-999.00,-999.00,-999.0,no,no,no,300534061984510,unknown,unknown,unknown,North
2021-03-07T12:09:56Z,1615118996,2021,12,10,66.5069,66.5069,71.16761,-145.20757,-999.00,-999.00,-999.0,no,no,no,300534061984510,unknown,unknown,unknown,North
2021-03-07T12:20:00Z,1615119601,2021,12,20,66.5139,66.5139,71.16779,-145.21052,-999.00,-999.00,-999.0,no,no,no,300534061984510,unknown,unknown,unknown,North
2021-03-07T12:29:57Z,1615120197,2021,12,30,66.5208,66.5208,71.16799,-145.21341,-999.00,-999.00,-999.0,no,no,no,300534061984510,unknown,unknown,unknown,North
2021-03-07T12:40:01Z,1615120802,2021,12,40,66.5278,66.5278,71.16817,-145.21631,-999.00,-999.00,-999.0,no,no,no,300534061984510,unknown,unknown,unknown,North
2021-03-07T12:49:58Z,1615121398,2021,12,50,66.5347,66.5347,71.16836,-145.21914,-999.00,-999.00,-999.0,no,no,no,300534061984510,unknown,unknown,unknown,North
2021-03-07T13:00:02Z,1615122003,2021,13,0,66.5417,66.5417,71.16854,-145.22196,-999.00,-999.00,-999.0,no,no,no,300534061984510,unknown,unknown,unknown,North
2021-03-07T13:09:59Z,1615122599,2021,13,10,66.5486,66.5486,71.16872,-145.22473,-999.00,-999.00,-999.0,no,no,no,300534061984510,unknown,unknown,unknown,North
2021-03-07T13:20:03Z,1615123204,2021,13,20,66.5556,66.5556,71.16889,-145.22736,-999.00,-999.00,-999.0,no,no,no,300534061984510,unknown,unknown,unknown,North
2021-03-07T13:30:00Z,1615123800,2021,13,30,66.5625,66.5625,71.16908,-145.23003,-999.00,-999.00,-999.0,no,no,no,300534061984510,unknown,unknown,unknown,North
2021-03-07T13:39:56Z,1615124396,2021,13,40,66.5694,66.5694,71.16928,-145.23294,-999.00,-999.00,-999.0,no,no,no,300534061984510,unknown,unknown,unknown,North
2021-03-07T13:50:00Z,1615125001,2021,13,50,66.5764,66.5764,71.16944,-145.23557,-999.00,-999.00,-999.0,no,no,no,300534061984510,unknown,unknown,unknown,North
2021-03-07T13:59:57Z,1615125597,2021,14,0,66.5833,66.5833,71.16961,-145.23822,-999.00,-999.00,-999.0,no,no,no,300534061984510,unknown,unknown,unknown,North
2021-03-07T14:10:01Z,1615126202,2021,14,10,66.5903,66.5903,71.16977,-145.24088,-999.00,-999.00,-999.0,no,no,no,300534061984510,unknown,unknown,unknown,North
2021-03-07T14:19:58Z,1615126798,2021,14,20,66.5972,66.5972,71.16994,-145.24354,-999.00,-999.00,-999.0,no,no,no,300534061984510,unknown,unknown,unknown,North
2021-03-07T14:30:02Z,1615127403,2021,14,30,66.6042,66.6042,71.17011,-145.24614,-999.00,-999.00,-999.0,no,no,no,300534061984510,unknown,unknown,unknown,North
2021-03-07T14:39:59Z,1615127999,2021,14,40,66.6111,66.6111,71.17029,-145.24876,-999.00,-999.00,-999.0,no,no,no,300534061984510,unknown,unknown,unknown,North
2021-03-07T14:50:03Z,1615128604,2021,14,50,66.6181,66.6181,71.17044,-145.25131,-999.00,-999.00,-999.0,no,no,no,300534061984510,unknown,unknown,unknown,North
2021-03-07T15:00:00Z,1615129200,2021,15,0,66.625,66.625,71.1706,-145.25392,-999.00,-999.00,-999.0,no,no,no,300534061984510,unknown,unknown,unknown,North
2021-03-07T15:09:56Z,1615129796,2021,15,10,66.6319,66.6319,71.17075,-145.25644,-999.00,-999.00,-999.0,no,no,no,300534061984510,unknown,unknown,unknown,North
2021-03-07T15:20:00Z,1615130401,2021,15,20,66.6389,66.6389,71.17087,-145.25906,-999.00,-999.00,-999.0,no,no,no,300534061984510,unknown,unknown,unknown,North
2021-03-07T15:29:57Z,1615130997,2021,15,30,66.6458,66.6458,71.17101,-145.26166,-999.00,-999.00,-999.0,no,no,no,300534061984510,unknown,unknown,unknown,North
2021-03-07T15:40:01Z,1615131602,2021,15,40,66.6528,66.6528,71.17117,-145.26416,-999.00,-999.00,-999.0,no,no,no,300534061984510,unknown,unknown,unknown,North
2021-03-07T15:49:58Z,1615132198,2021,15,50,66.6597,66.6597,71.17132,-145.26665,-999.00,-999.00,-999.0,no,no,no,300534061984510,unknown,unknown,unknown,North
2021-03-07T16:00:02Z,1615132803,2021,16,0,66.6667,66.6667,71.17147,-145.26911,-999.00,-999.00,-999.0,no,no,no,300534061984510,unknown,unknown,unknown,North
2021-03-07T16:09:59Z,1615133399,2021,16,10,66.6736,66.6736,71.17164,-145.27159,-999.00,-999.00,-999.0,no,no,no,300534061984510,unknown,unknown,unknown,North
2021-03-07T16:20:03Z,1615134004,2021,16,20,66.6806,66.6806,71.1718,-145.27399,-999.00,-999.00,-999.0,no,no,no,300534061984510,unknown,unknown,unknown,North
2021-03-07T16:30:00Z,1615134600,2021,16,30,66.6875,66.6875,71.17195,-145.27628,-999.00,-999.00,-999.0,no,no,no,300534061984510,unknown,unknown,unknown,North
2021-03-07T16:39:56Z,1615135196,2021,16,40,66.6944,66.6944,71.17214,-145.27867,-999.00,-999.00,-999.0,no,no,no,300534061984510,unknown,unknown,unknown,North
2021-03-07T16:50:00Z,1615135801,2021,16,50,66.7014,66.7014,71.17227,-145.28101,-999.00,-999.00,-999.0,no,no,no,300534061984510,unknown,unknown,unknown,North
2021-03-07T16:59:57Z,1615136397,2021,17,0,66.7083,66.7083,71.17243,-145.28351,-999.00,-999.00,-999.0,no,no,no,300534061984510,unknown,unknown,unknown,North
2021-03-07T17:10:01Z,1615137002,2021,17,10,66.7153,66.7153,71.17257,-145.28584,-999.00,-999.00,-999.0,no,no,no,300534061984510,unknown,unknown,unknown,North
2021-03-07T17:19:58Z,1615137598,2021,17,20,66.7222,66.7222,71.17272,-145.28826,-999.00,-999.00,-999.0,no,no,no,300534061984510,unknown,unknown,unknown,North
2021-03-07T17:30:02Z,1615138203,2021,17,30,66.7292,66.7292,71.17288,-145.29063,-999.00,-999.00,-999.0,no,no,no,300534061984510,unknown,unknown,unknown,North
2021-03-07T17:39:59Z,1615138799,2021,17,40,66.7361,66.7361,71.173,-145.29308,-999.00,-999.00,-999.0,no,no,no,300534061984510,unknown,unknown,unknown,North
2021-03-07T17:50:03Z,1615139404,2021,17,50,66.7431,66.7431,71.17319,-145.29542,-999.00,-999.00,-999.0,no,no,no,300534061984510,unknown,unknown,unknown,North
2021-03-07T18:00:00Z,1615140000,2021,18,0,66.75,66.75,71.17327,-145.298,-999.00,-999.00,-999.0,no,no,no,300534061984510,unknown,unknown,unknown,North
2021-03-07T18:09:56Z,1615140596,2021,18,10,66.7569,66.7569,71.17339,-145.30035,-999.00,-999.00,-999.0,no,no,no,300534061984510,unknown,unknown,unknown,North
2021-03-07T18:20:00Z,1615141201,2021,18,20,66.7639,66.7639,71.17351,-145.30268,-999.00,-999.00,-999.0,no,no,no,300534061984510,unknown,unknown,unknown,North
2021-03-07T18:29:57Z,1615141797,2021,18,30,66.7708,66.7708,71.17361,-145.30511,-999.00,-999.00,-999.0,no,no,no,300534061984510,unknown,unknown,unknown,North
2021-03-07T18:40:01Z,1615142402,2021,18,40,66.7778,66.7778,71.17374,-145.30737,-999.00,-999.00,-999.0,no,no,no,300534061984510,unknown,unknown,unknown,North
2021-03-07T18:49:58Z,1615142998,2021,18,50,66.7847,66.7847,71.17387,-145.30972,-999.00,-999.00,-999.0,no,no,no,300534061984510,unknown,unknown,unknown,North
2021-03-07T19:00:02Z,1615143603,2021,19,0,66.7917,66.7917,71.17401,-145.31214,-999.00,-999.00,-999.0,no,no,no,300534061984510,unknown,unknown,unknown,North
2021-03-07T19:09:59Z,1615144199,2021,19,10,66.7986,66.7986,71.17414,-145.31448,-999.00,-999.00,-999.0,no,no,no,300534061984510,unknown,unknown,unknown,North
2021-03-07T19:20:03Z,1615144804,2021,19,20,66.8056,66.8056,71.17427,-145.31685,-999.00,-999.00,-999.0,no,no,no,300534061984510,unknown,unknown,unknown,North
2021-03-07T19:30:00Z,1615145400,2021,19,30,66.8125,66.8125,71.17443,-145.31926,-999.00,-999.00,-999.0,no,no,no,300534061984510,unknown,unknown,unknown,North
2021-03-07T19:39:56Z,1615145996,2021,19,40,66.8194,66.8194,71.17456,-145.32164,-999.00,-999.00,-999.0,no,no,no,300534061984510,unknown,unknown,unknown,North
2021-03-07T19:50:00Z,1615146601,2021,19,50,66.8264,66.8264,71.17471,-145.32402,-999.00,-999.00,-999.0,no,no,no,300534061984510,unknown,unknown,unknown,North
2021-03-07T19:59:57Z,1615147197,2021,20,0,66.8333,66.8333,71.17493,-145.32629,-999.00,-999.00,-999.0,no,no,no,300534061984510,unknown,unknown,unknown,North
2021-03-07T20:10:01Z,1615147802,2021,20,10,66.8403,66.8403,71.17504,-145.32859,-999.00,-999.00,-999.0,no,no,no,300534061984510,unknown,unknown,unknown,North
2021-03-07T20:19:58Z,1615148398,2021,20,20,66.8472,66.8472,71.17521,-145.33103,-999.00,-999.00,-999.0,no,no,no,300534061984510,unknown,unknown,unknown,North
2021-03-07T20:30:02Z,1615149003,2021,20,30,66.8542,66.8542,71.17536,-145.33355,-999.00,-999.00,-999.0,no,no,no,300534061984510,unknown,unknown,unknown,North
2021-03-07T20:39:59Z,1615149599,2021,20,40,66.8611,66.8611,71.17555,-145.33615,-999.00,-999.00,-999.0,no,no,no,300534061984510,unknown,unknown,unknown,North
2021-03-07T20:50:03Z,1615150204,2021,20,50,66.8681,66.8681,71.17572,-145.33863,-999.00,-999.00,-999.0,no,no,no,300534061984510,unknown,unknown,unknown,North
2021-03-07T21:00:00Z,1615150800,2021,21,0,66.875,66.875,71.17589,-145.34127,-999.00,-999.00,-999.0,no,no,no,300534061984510,unknown,unknown,unknown,North
2021-03-07T21:09:56Z,1615151396,2021,21,10,66.8819,66.8819,71.17605,-145.34399,-999.00,-999.00,-999.0,no,no,no,300534061984510,unknown,unknown,unknown,North
2021-03-07T21:20:00Z,1615152001,2021,21,20,66.8889,66.8889,71.17623,-145.34667,-999.00,-999.00,-999.0,no,no,no,300534061984510,unknown,unknown,unknown,North
2021-03-07T21:29:57Z,1615152597,2021,21,30,66.8958,66.8958,71.17641,-145.34933,-999.00,-999.00,-999.0,no,no,no,300534061984510,unknown,unknown,unknown,North
2021-03-07T21:40:01Z,1615153202,2021,21,40,66.9028,66.9028,71.17661,-145.35202,-999.00,-999.00,-999.0,no,no,no,300534061984510,unknown,unknown,unknown,North
2021-03-07T21:49:58Z,1615153798,2021,21,50,66.9097,66.9097,71.17682,-145.35467,-999.00,-999.00,-999.0,no,no,no,300534061984510,unknown,unknown,unknown,North
2021-03-07T22:00:02Z,1615154403,2021,22,0,66.9167,66.9167,71.17705,-145.35736,-999.00,-999.00,-999.0,no,no,no,300534061984510,unknown,unknown,unknown,North
2021-03-07T22:09:59Z,1615154999,2021,22,10,66.9236,66.9236,71.17728,-145.35991,-999.00,-999.00,-999.0,no,no,no,300534061984510,unknown,unknown,unknown,North
2021-03-07T22:20:03Z,1615155604,2021,22,20,66.9306,66.9306,71.17751,-145.36257,-999.00,-999.00,-999.0,no,no,no,300534061984510,unknown,unknown,unknown,North
2021-03-07T22:30:00Z,1615156200,2021,22,30,66.9375,66.9375,71.17774,-145.36532,-999.00,-999.00,-999.0,no,no,no,300534061984510,unknown,unknown,unknown,North
2021-03-07T22:39:56Z,1615156796,2021,22,40,66.9444,66.9444,71.17795,-145.36807,-999.00,-999.00,-999.0,no,no,no,300534061984510,unknown,unknown,unknown,North
2021-03-07T22:50:00Z,1615157401,2021,22,50,66.9514,66.9514,71.17814,-145.37086,-999.00,-999.00,-999.0,no,no,no,300534061984510,unknown,unknown,unknown,North
2021-03-07T22:59:57Z,1615157997,2021,23,0,66.9583,66.9583,71.17838,-145.37367,-999.00,-999.00,-999.0,no,no,no,300534061984510,unknown,unknown,unknown,North